    Orbital elements:
    2023 HO5                                                 Earth MOID = 0.0205 AU
    Epoch 2023 Feb. 25.0 TT = JDT 2460000.5                 Veres                   
    M 346.59852              (2000.0)            P               Q                  
    n   0.36614182     Peri.  146.89781     -0.98956655     +0.10945883             
    a   1.9350989      Node    39.71982     -0.14174548     -0.85613104             
    e   0.4924557      Incl.    8.43014     +0.02581200     -0.50503308             
    P   2.69           H   26.20          G   0.15           U   7                  
    Residuals in seconds of arc
    230425 K88  0.1+  0.4+    230426 K74  0.0   0.1-    230426 G96  0.5-  0.8-
    230425 K88  0.0   0.3-    230426 C40  0.0   0.2-    230426 C82  0.3-  0.3-
    230425 K88  0.4-  0.2-    230426 K74  0.2-  0.4-    230426 C82  0.0   0.8+
    230425 K88  0.0   0.3+    230426 C40  0.5+  0.3+    230426 C82  1.3-  0.4-
    230425 K88  0.7-  0.4+    230426 K88  0.1-  0.3+    230426 595  0.5-  0.1-
    230425 K88  0.9-  0.0     230426 K88  0.1+  0.1-    230426 595  0.1-  0.4-
    230425 204  0.4-  0.6+    230426 L01  0.3-  0.3+    230426 G02  0.6-  0.2-
    230425 204  0.1-  0.5+    230426 L01  0.1-  0.1+    230426 K88  0.4-  0.0
    230425 204  0.0   0.3+    230426 K88  0.1+  0.4+    230426 G02  1.1-  0.4+
    230425 K88  0.2-  0.3+    230426 L01  0.1-  0.1-    230426 K88  0.0   0.1+
    230425 K88  0.1-  0.2-    230426 L01  0.3-  0.2+    230426 G02  0.7-  0.3+
    230425 K88  0.5-  0.4+    230426 L01  0.2-  0.2+    230426 203  0.2+  0.2+
    230425 C40  0.0   0.5-    230426 I52  0.2-  0.0     230426 203  0.3+  0.2-
    230425 C40  0.0   0.1-    230426 I52  0.1+  0.2+    230426 203  0.0   0.2-
    230425 C40  1.1+  0.6-    230426 I52  0.0   0.0     230426 K88  0.3+  0.2-
    230425 C40  0.5-  0.1+    230426 I52  0.0   0.1+    230426 K88  0.2-  0.4+
    230425 C40  0.0   0.1+    230426 654  0.3+  0.2-    230426 J95  0.2-  0.2-
    230426 K74  0.1+  0.0     230426 654  0.0   0.1+    230426 J95  0.3+  0.4-
    230426 K74  0.2-  0.3-    230426 G96  0.4-  0.6-    230426 J95  0.0   0.3+
    230426 K74  0.3+  0.2+    230426 G96  0.5-  1.5-    230426 J95  0.1+  0.3+
    230426 C40  0.2+  1.6-    230426 G96  0.6-  0.4+
    230426 K74  0.2+  0.1+    230426 654  0.0   0.1+
    
    Ephemeris:
    2023 HO5                 a,e,i = 1.94, 0.49, 8                   q = 0.9821
    Date    TT    R. A. (2000) Decl.     Delta      r    Elong.  Phase     V
    2023 03 28    05 24 57.7 +61 35 38   0.1497  0.9845    80.6    90.8    25.3
    ...
    2023 04 12    06 34 23.7 +66 49 25   0.07719 0.9888    77.9    97.8    24.1
    ...
    2023 04 20    09 42 48.0 +69 00 44   0.03905 1.0046    89.1    88.6    22.3
    ...
    2023 04 26    13 51 53.9 +28 03 58   0.02142 1.0221   138.4    40.8    19.5
    2023 04 27    14 14 28.2 +15 00 04   0.02183 1.0255   151.4    28.0    19.2
    2023 04 28    14 32 40.1 +02 58 11   0.02348 1.0290   162.8    16.8    19.0
    ...
    2023 05 04    15 31 25.1 -32 47 00   0.04706 1.0523   159.6    19.5    20.7
    ...
    2023 05 12    15 58 37.9 -43 48 48   0.08845 1.0891   152.4    25.4    22.3
    ...
    2023 05 27    16 12 26.5 -47 36 07   0.1749  1.1723   153.6    22.6    23.8
    
    M. P. C. Staff               (C) Copyright 2023 MPC           M.P.E.C. 2023-H200
    


    Read MPEC 2023-H199 Read MPEC 2023-H201


    MPEC number:

    Enter an MPEC number in one of the following forms:

    • 1997-B01 (the full form)
    • J97B01 (the packed version of the full form)
    • B01 (the abbreviated form)